STARLINK-30201, 57301

Orbit data source: Space-Track

STARLINK-30201, 57301 is a payload satellite owned by SpaceX/Seattle (US) in LEO that was launched on Mon, 10 Jul 2023 UTC via an FALCON 9 launch vehicle from the Air Force Eastern Test Range (AFETR). Payload-class satellites include a variety of spacecraft equipped with specific instruments for various scientific and technological missions. These include communications satellites like Starlink; space stations such as the ISS; scientific satellites like the Hubble; Earth observation satellites from companies like Planet Labs, Umbra, and HawkEye 360; GPS; miniature CubeSats for education and research; and military/defense satellites.

Loading next visibility...
Identifier
57301, 2023-096M
Orbit
LEO
Country
Flag of USUS
Related business
Manufacturer
SpaceX/Seattle
Mission
Operational Commercial Communications
Bus & Motor
STARLINK V2M, Unknown motor
Mass
730 kg wet, ~700 kg dry
Launch date (UTC)
2023-07-10 (3 years ago)
Launch vehicle
FALCON 9
Launch site
Air Force Eastern Test Range (AFETR)
Object type
Payload
Rocket body
Debris
Shape & HBR
Box + 2 Pan, 17.7 m
Radar Cross Section
33.884 m², Large (>1 m²)

Expand to show TLE details & history
Last TLE update: 3 days ago

TLE from 3 days ago
0 STARLINK-30201
1 57301U 23096M   26170.87817054  .00001377  00000-0  59564-4 0  9993
2 57301  43.0039   6.2521 0001524 284.8259  75.2424 15.27578771162343
Epoch: 2026-06-19T21:04Z
TLE epoch observation values (Epoch: 2026-06-19T21:04:33.934Z)
Latitude
-0.00001°
Longitude
142.00986°
Altitude
482.562 km
Speed
7.626 km/s
True Right ascension
00h 25m 00s
True Declination
0° 00' 00"
Sunlit
Object was in daylight at epoch
Visualization orbit readout
Latitude
Unknown
Longitude
Unknown
Altitude
Unknown
Speed
Unknown
Apparent Right ascension
Unknown
Apparent Declination
Unknown
Sunlit
N/A
Visualization observer readout
Local Sidereal Time
00:50:25
Azimuth
Unknown
Elevation
Unknown
Doppler factor
Unknown
Orbital elements
Apogee altitude
486.043 km
Perigee altitude
483.951 km
Semi-major axis
6,863.134 km
Eccentricity
0.00015
Inclination
43.0039°
RAAN
6.2521°
Arg. of periapsis
284.8259°
True anomaly
75.25929°
Mean anomaly
75.2424°
Eccentric anomaly
75.25084°
Mean motion
3.81733 °/min
Orbital period
94.31 mins
BSTAR
0.000059564
Loading maneuver chart data...
Computing Atmospheric mass density...

Documentation

Showing up to 5 results
|